Home   Weather   St. George   Past weeks
Flag for USA

Past Weather in St. George, Utah, USA — Yesterday and Last 2 Weeks

Now
94 °F

Clear.


Feels Like: 89 °F
Forecast: 103 / 70 °F
Wind: 7 mph from West

Location: Saint George

Current Time: Jul 20, 2019 at 10:39:35 pm

Latest Report: Jul 20, 2019 at 9:56 pm


Visibility: 10 mi

Pressure: 29.72 "Hg (27.07 "Hg at 842m altitude)

Humidity: 11%

Dew Point: 32 °F

Location of St. GeorgeLocation

Past Weather in St. George — Graph

°F

St. George Temperature Yesterday

Maximum temperature yesterday: 102 °F (at 3:56 pm)
Minimum temperature yesterday: 74 °F (at 6:56 am)
Average temperature yesterday: 90 °F

High & Low Weather Summary for the Past Weeks

 TemperatureHumidityPressure
High106 °F (Jul 16, 2:56 pm)45% (Jul 14, 6:56 am)30.03 "Hg (Jul 14, 6:56 am)
Low69 °F (Jul 6, 6:56 am)5% (Jul 17, 3:56 pm)29.60 "Hg (Jul 16, 6:56 pm)
Average89 °F16%29.82 "Hg
* Reported Jul 5 8:56 pm — Jul 20 8:56 pm, St. George. Weather by CustomWeather, © 2019

Note: Actual official high and low records may vary slightly from our data, if they occured in-between our weather recording intervals... More about our weather records

Advertising

St. George Weather History for the Previous 24 Hours

Scroll right to see more
 ConditionsComfort  
Time TempWeatherWind HumidityBarometerVisibility
8:56 pm
Sat, Jul 20
96 °FClear.10 mph10%29.70 "Hg10 mi
7:56 pm99 °FSunny.13 mph10%29.70 "Hg10 mi
6:56 pm100 °FSunny.13 mph10%29.69 "Hg10 mi
5:56 pm101 °FSunny.9 mph9%29.70 "Hg10 mi
4:56 pm100 °FSunny.6 mph8%29.71 "Hg10 mi
3:56 pm99 °FSunny.3 mph9%29.74 "Hg10 mi
2:56 pm99 °FSunny.8 mph9%29.75 "Hg10 mi
1:56 pm97 °FSunny.5 mph10%29.78 "Hg10 mi
12:56 pm93 °FSunny.7 mph10%29.80 "Hg10 mi
11:56 am91 °FSunny.5 mph11%29.82 "Hg10 mi
10:56 am87 °FSunny.3 mph11%29.83 "Hg10 mi
9:56 am83 °FSunny.3 mph12%29.83 "Hg10 mi
8:56 am77 °FSunny.No wind17%29.83 "Hg10 mi
7:56 am73 °FSunny.No wind19%29.82 "Hg10 mi
6:56 am71 °FSunny.No wind20%29.80 "Hg10 mi
5:56 am73 °FClear.6 mph13%29.78 "Hg10 mi
4:56 am75 °FClear.3 mph12%29.76 "Hg10 mi
3:56 am79 °FClear.13 mph11%29.74 "Hg10 mi
2:56 am78 °FClear.10 mph11%29.74 "Hg10 mi
1:56 am79 °FClear.No wind11%29.74 "Hg10 mi
12:56 am81 °FClear.7 mph11%29.73 "Hg10 mi
11:56 pm
Fri, Jul 19
85 °FClear.3 mph9%29.73 "Hg10 mi
10:56 pm85 °FClear.No wind9%29.72 "Hg10 mi
Weather by CustomWeather, © 2019

See weather overview